| time (UTC) | temp F | wind direction | speed knots | gust knots | rain 1hr in | rain 24hr in | rain mn in | humidity % | barometer mb |
| 20260504192751 | 71 | 208 | 2.6 | 7.8 | 0.00 | 0.00 | 0.00 | 32 | 1011.2 |
| 20260504192248 | 71 | 73 | 3.5 | 10.4 | 0.00 | 0.00 | 0.00 | 31 | 1011.5 |
| 20260504191747 | 71 | 43 | 2.6 | 4.3 | 0.00 | 0.00 | 0.00 | 31 | 1011.5 |
| 20260504191243 | 70 | 114 | 2.6 | 5.2 | 0.00 | 0.00 | 0.00 | 32 | 1011.7 |
| 20260504190739 | 70 | 78 | 4.3 | 7.8 | 0.00 | 0.00 | 0.00 | 32 | 1011.6 |
| 20260504190235 | 70 | 101 | 6.1 | 7.0 | 0.00 | 0.00 | 0.00 | 32 | 1011.8 |
| 20260504185732 | 70 | 64 | 5.2 | 13.0 | 0.00 | 0.00 | 0.00 | 31 | 1011.6 |
| 20260504185229 | 70 | 113 | 6.1 | 8.7 | 0.00 | 0.00 | 0.00 | 32 | 1011.9 |
| 20260504184725 | 71 | 12 | 3.5 | 5.2 | 0.00 | 0.00 | 0.00 | 32 | 1012.0 |
| 20260504184221 | 71 | 61 | 5.2 | 5.2 | 0.00 | 0.00 | 0.00 | 31 | 1012.0 |
| 20260504183717 | 70 | 81 | 3.5 | 5.2 | 0.00 | 0.00 | 0.00 | 31 | 1012.2 |
| 20260504183214 | 71 | 8 | 3.5 | 7.8 | 0.00 | 0.00 | 0.00 | 31 | 1012.1 |
| 20260504182712 | 70 | 291 | 1.7 | 8.7 | 0.00 | 0.00 | 0.00 | 32 | 1012.0 |
| 20260504182209 | 70 | 46 | 2.6 | 4.3 | 0.00 | 0.00 | 0.00 | 33 | 1012.0 |
| 20260504181707 | 70 | 83 | 2.6 | 6.1 | 0.00 | 0.00 | 0.00 | 32 | 1012.2 |
| 20260504181204 | 70 | 110 | 2.6 | 5.2 | 0.00 | 0.00 | 0.00 | 31 | 1012.2 |
| 20260504180703 | 70 | 3 | 4.3 | 6.1 | 0.00 | 0.00 | 0.00 | 31 | 1012.3 |
| 20260504180201 | 70 | 0 | 3.5 | 6.1 | 0.00 | 0.00 | 0.00 | 32 | 1012.6 |
| 20260504175658 | 69 | 316 | 5.2 | 8.7 | 0.00 | 0.00 | 0.00 | 31 | 1012.4 |
| 20260504175155 | 70 | 284 | 3.5 | 10.4 | 0.00 | 0.00 | 0.00 | 31 | 1012.7 |
| 20260504174653 | 70 | 86 | 2.6 | 7.0 | 0.00 | 0.00 | 0.00 | 32 | 1012.9 |
| 20260504174149 | 69 | 44 | 4.3 | 5.2 | 0.00 | 0.00 | 0.00 | 32 | 1012.7 |
| 20260504173646 | 70 | 291 | 2.6 | 7.8 | 0.00 | 0.00 | 0.00 | 31 | 1012.6 |
| 20260504173144 | 70 | 359 | 1.7 | 4.3 | 0.00 | 0.00 | 0.00 | 31 | 1012.8 |
| 20260504172640 | 70 | 1 | 2.6 | 4.3 | 0.00 | 0.00 | 0.00 | 32 | 1012.7 |
| 20260504172137 | 70 | 77 | 0.9 | 4.3 | 0.00 | 0.00 | 0.00 | 32 | 1012.9 |
| 20260504171633 | 69 | 100 | 4.3 | 5.2 | 0.00 | 0.00 | 0.00 | 32 | 1012.8 |
| 20260504171131 | 69 | 46 | 1.7 | 6.1 | 0.00 | 0.00 | 0.00 | 32 | 1012.8 |
| 20260504170627 | 69 | 299 | 1.7 | 5.2 | 0.00 | 0.00 | 0.00 | 32 | 1012.7 |
| 20260504170125 | 68 | 108 | 5.2 | 7.0 | 0.00 | 0.00 | 0.00 | 33 | 1012.9 |
| 20260504151010 | 66 | 34 | 2.6 | 3.5 | 0.00 | 0.00 | 0.00 | 35 | 1014.5 |
| 20260504150508 | 66 | 211 | 3.5 | 7.8 | 0.00 | 0.00 | 0.00 | 35 | 1014.6 |
| 20260504140933 | 64 | 44 | 7.0 | 7.0 | 0.00 | 0.00 | 0.00 | 39 | 1014.8 |
| 20260504140430 | 64 | 54 | 3.5 | 5.2 | 0.00 | 0.00 | 0.00 | 40 | 1014.7 |
| 20260504130355 | 61 | 122 | 1.7 | 4.3 | 0.00 | 0.00 | 0.00 | 43 | 1015.4 |
| 20260504120317 | 57 | 345 | 2.6 | 7.8 | 0.00 | 0.00 | 0.00 | 49 | 1015.8 |
| 20260504110241 | 55 | 18 | 2.6 | 5.2 | 0.00 | 0.00 | 0.00 | 46 | 1015.6 |
| 20260504100205 | 53 | 359 | 1.7 | 4.3 | 0.00 | 0.00 | 0.00 | 46 | 1015.4 |
| 20260504090128 | 54 | 82 | 2.6 | 6.1 | 0.00 | 0.00 | 0.00 | 44 | 1015.1 |
| 20260504081558 | 56 | 62 | 1.7 | 6.1 | 0.00 | 0.00 | 0.00 | 38 | 1014.9 |
| 20260504081054 | 56 | 33 | 5.2 | 5.2 | 0.00 | 0.00 | 0.00 | 39 | 1014.8 |
| 20260504080551 | 56 | 36 | 3.5 | 5.2 | 0.00 | 0.00 | 0.00 | 38 | 1014.8 |
| 20260504050403 | 57 | 34 | 3.5 | 7.0 | 0.00 | 0.00 | 0.00 | 37 | 1014.2 |
| 20260504045900 | 57 | 37 | 5.2 | 5.2 | 0.00 | 0.00 | 0.00 | 36 | 1014.3 |
| 20260504045355 | 57 | 3 | 3.5 | 5.2 | 0.00 | 0.00 | 0.00 | 37 | 1014.1 |
| 20260504044853 | 57 | 62 | 1.7 | 4.3 | 0.00 | 0.00 | 0.00 | 36 | 1014.2 |
| 20260504044350 | 57 | 28 | 2.6 | 6.1 | 0.00 | 0.00 | 0.00 | 37 | 1014.3 |
| 20260504043848 | 57 | 58 | 1.7 | 6.1 | 0.00 | 0.00 | 0.00 | 37 | 1014.1 |
| 20260504043344 | 57 | 32 | 4.3 | 9.6 | 0.00 | 0.00 | 0.00 | 35 | 1014.1 |
| 20260504042842 | 57 | 68 | 3.5 | 3.5 | 0.00 | 0.00 | 0.00 | 36 | 1013.9 |
| 20260504042338 | 58 | 58 | 3.5 | 9.6 | 0.00 | 0.00 | 0.00 | 35 | 1014.1 |
| 20260504041834 | 58 | 76 | 2.6 | 5.2 | 0.00 | 0.00 | 0.00 | 35 | 1014.1 |
| 20260504041330 | 58 | 107 | 1.7 | 6.1 | 0.00 | 0.00 | 0.00 | 35 | 1013.9 |
| 20260504040826 | 58 | 7 | 1.7 | 7.8 | 0.00 | 0.00 | 0.00 | 35 | 1013.8 |
| 20260504040324 | 58 | 89 | 3.5 | 5.2 | 0.00 | 0.00 | 0.00 | 35 | 1014.0 |
| 20260504035820 | 58 | 53 | 2.6 | 3.5 | 0.00 | 0.00 | 0.00 | 34 | 1014.0 |
| 20260504035318 | 58 | 50 | 4.3 | 6.1 | 0.00 | 0.00 | 0.00 | 34 | 1013.8 |
| 20260504034815 | 58 | 73 | 2.6 | 5.2 | 0.00 | 0.00 | 0.00 | 35 | 1013.9 |
| 20260504034312 | 58 | 83 | 0.9 | 3.5 | 0.00 | 0.00 | 0.00 | 35 | 1013.9 |
| 20260504033809 | 58 | 53 | 2.6 | 5.2 | 0.00 | 0.00 | 0.00 | 34 | 1013.8 |
| 20260504033307 | 58 | 125 | 3.5 | 4.3 | 0.00 | 0.00 | 0.00 | 34 | 1013.8 |
| 20260504032803 | 58 | 309 | 1.7 | 3.5 | 0.00 | 0.00 | 0.00 | 34 | 1013.8 |
| 20260504032300 | 58 | 55 | 3.5 | 4.3 | 0.00 | 0.00 | 0.00 | 34 | 1013.9 |
| 20260504031757 | 58 | 81 | 2.6 | 5.2 | 0.00 | 0.00 | 0.00 | 34 | 1013.8 |
| 20260504031255 | 58 | 93 | 2.6 | 4.3 | 0.00 | 0.00 | 0.00 | 34 | 1013.7 |
| 20260504030750 | 58 | 109 | 3.5 | 10.4 | 0.00 | 0.00 | 0.00 | 33 | 1013.8 |
| 20260504030248 | 58 | 17 | 2.6 | 5.2 | 0.00 | 0.00 | 0.00 | 33 | 1013.9 |
| 20260504025744 | 58 | 60 | 6.1 | 7.0 | 0.00 | 0.00 | 0.00 | 33 | 1014.0 |
| 20260504025241 | 58 | 80 | 2.6 | 4.3 | 0.00 | 0.00 | 0.00 | 33 | 1013.7 |
| 20260504024738 | 59 | 120 | 1.7 | 3.5 | 0.00 | 0.00 | 0.00 | 33 | 1014.0 |
| 20260504024235 | 59 | 53 | 3.5 | 3.5 | 0.00 | 0.00 | 0.00 | 31 | 1013.9 |
| 20260504023732 | 59 | 50 | 1.7 | 3.5 | 0.00 | 0.00 | 0.00 | 31 | 1013.9 |
| 20260504023228 | 59 | 66 | 2.6 | 4.3 | 0.00 | 0.00 | 0.00 | 31 | 1013.9 |
| 20260504022724 | 59 | 104 | 5.2 | 5.2 | 0.00 | 0.00 | 0.00 | 31 | 1013.9 |
| 20260504022220 | 59 | 49 | 3.5 | 6.1 | 0.00 | 0.00 | 0.00 | 31 | 1013.9 |
| 20260504021718 | 59 | 72 | 1.7 | 3.5 | 0.00 | 0.00 | 0.00 | 30 | 1014.2 |
| 20260504021215 | 59 | 130 | 1.7 | 4.3 | 0.00 | 0.00 | 0.00 | 31 | 1014.0 |
| 20260504020711 | 59 | 63 | 0.9 | 2.6 | 0.00 | 0.00 | 0.00 | 31 | 1013.9 |
| 20260504020208 | 59 | 51 | 4.3 | 4.3 | 0.00 | 0.00 | 0.00 | 30 | 1013.9 |
| 20260504015704 | 59 | 72 | 2.6 | 3.5 | 0.00 | 0.00 | 0.00 | 30 | 1013.9 |
| 20260504015200 | 59 | 249 | 1.7 | 7.0 | 0.00 | 0.00 | 0.00 | 29 | 1013.8 |
| 20260504014656 | 59 | 114 | 0.9 | 4.3 | 0.00 | 0.00 | 0.00 | 30 | 1013.9 |
| 20260504014153 | 59 | 41 | 1.7 | 3.5 | 0.00 | 0.00 | 0.00 | 29 | 1013.7 |
| 20260504013651 | 59 | 1 | 1.7 | 2.6 | 0.00 | 0.00 | 0.00 | 29 | 1013.7 |
| 20260504013148 | 59 | 46 | 2.6 | 3.5 | 0.00 | 0.00 | 0.00 | 29 | 1013.8 |
| 20260504012645 | 59 | 87 | 1.7 | 3.5 | 0.00 | 0.00 | 0.00 | 29 | 1013.8 |
| 20260504012143 | 59 | 50 | 1.7 | 5.2 | 0.00 | 0.00 | 0.00 | 29 | 1013.6 |
| 20260504011639 | 59 | 323 | 6.1 | 7.8 | 0.00 | 0.00 | 0.00 | 29 | 1013.5 |
| 20260504011136 | 59 | 63 | 1.7 | 3.5 | 0.00 | 0.00 | 0.00 | 29 | 1013.5 |
| 20260504010632 | 59 | 34 | 1.7 | 3.5 | 0.00 | 0.00 | 0.00 | 29 | 1013.4 |
| 20260504010128 | 59 | 67 | 1.7 | 2.6 | 0.00 | 0.00 | 0.00 | 30 | 1013.4 |
| 20260504005625 | 59 | 7 | 0.9 | 2.6 | 0.00 | 0.00 | 0.00 | 29 | 1013.3 |
| 20260504005122 | 59 | 71 | 2.6 | 3.5 | 0.00 | 0.00 | 0.00 | 30 | 1013.3 |
| 20260504004620 | 59 | 52 | 1.7 | 1.7 | 0.00 | 0.00 | 0.00 | 29 | 1013.2 |
| 20260504004117 | 59 | 305 | 1.7 | 5.2 | 0.00 | 0.00 | 0.00 | 29 | 1013.3 |
| 20260504003613 | 59 | 317 | 4.3 | 5.2 | 0.00 | 0.00 | 0.00 | 29 | 1013.2 |
| 20260504003110 | 59 | 95 | 1.7 | 7.0 | 0.00 | 0.00 | 0.00 | 29 | 1013.1 |
| 20260504002606 | 59 | 313 | 2.6 | 4.3 | 0.00 | 0.00 | 0.00 | 28 | 1012.9 |
| 20260504002104 | 59 | 327 | 0.9 | 7.0 | 0.00 | 0.00 | 0.00 | 28 | 1012.9 |
| 20260504001602 | 59 | 302 | 9.6 | 17.4 | 0.00 | 0.00 | 0.00 | 28 | 1012.9 |
| 20260504001057 | 59 | 353 | 1.7 | 5.2 | 0.00 | 0.00 | 0.00 | 28 | 1012.7 |
| 20260504000555 | 59 | 315 | 1.7 | 9.6 | 0.00 | 0.00 | 0.00 | 28 | 1012.7 |
| 20260504000052 | 59 | 271 | 5.2 | 7.8 | 0.00 | 0.00 | 0.00 | 28 | 1012.8 |
| 20260503235550 | 60 | 314 | 4.3 | 6.1 | 0.00 | 0.00 | 0.00 | 28 | 1012.6 |
| 20260503235047 | 60 | 314 | 5.2 | 5.2 | 0.00 | 0.00 | 0.00 | 28 | 1012.5 |
| 20260503234544 | 60 | 307 | 4.3 | 5.2 | 0.00 | 0.00 | 0.00 | 27 | 1012.6 |
| 20260503234043 | 60 | 286 | 7.0 | 10.4 | 0.00 | 0.00 | 0.00 | 27 | 1012.5 |
| 20260503233539 | 60 | 277 | 5.2 | 7.8 | 0.00 | 0.00 | 0.00 | 27 | 1012.4 |
| 20260503233035 | 60 | 335 | 5.2 | 8.7 | 0.00 | 0.00 | 0.00 | 27 | 1012.2 |
| 20260503232532 | 60 | 320 | 7.0 | 8.7 | 0.00 | 0.00 | 0.00 | 27 | 1012.2 |
| 20260503232030 | 60 | 327 | 6.1 | 7.8 | 0.00 | 0.00 | 0.00 | 27 | 1012.2 |
| 20260503231527 | 60 | 286 | 9.6 | 14.8 | 0.00 | 0.00 | 0.00 | 26 | 1012.0 |
| 20260503231024 | 60 | 282 | 12.2 | 19.1 | 0.00 | 0.00 | 0.00 | 26 | 1012.0 |
| 20260503230520 | 60 | 80 | 2.6 | 8.7 | 0.00 | 0.00 | 0.00 | 26 | 1011.9 |
| 20260503230018 | 60 | 348 | 4.3 | 5.2 | 0.00 | 0.00 | 0.00 | 26 | 1012.0 |
| 20260503225515 | 60 | 349 | 7.8 | 15.6 | 0.00 | 0.00 | 0.00 | 26 | 1011.8 |
| 20260503225010 | 60 | 337 | 7.8 | 9.6 | 0.00 | 0.00 | 0.00 | 26 | 1011.9 |
| 20260503224508 | 60 | 320 | 13.9 | 14.8 | 0.00 | 0.00 | 0.00 | 25 | 1012.1 |
| 20260503224005 | 59 | 322 | 11.3 | 15.6 | 0.00 | 0.00 | 0.00 | 26 | 1012.0 |
| 20260503223503 | 59 | 313 | 13.9 | 21.7 | 0.00 | 0.00 | 0.00 | 25 | 1012.2 |
| 20260503222958 | 59 | 279 | 15.6 | 18.2 | 0.00 | 0.00 | 0.00 | 25 | 1012.0 |
| 20260503222457 | 59 | 65 | 2.6 | 10.4 | 0.00 | 0.00 | 0.00 | 26 | 1012.0 |
| 20260503221954 | 59 | 318 | 2.6 | 18.2 | 0.00 | 0.00 | 0.00 | 25 | 1011.9 |
| 20260503221452 | 59 | 286 | 3.5 | 13.9 | 0.00 | 0.00 | 0.00 | 26 | 1011.8 |
| 20260503220949 | 59 | 178 | 3.5 | 10.4 | 0.00 | 0.00 | 0.00 | 26 | 1011.8 |
| 20260503220445 | 59 | 282 | 6.1 | 15.6 | 0.00 | 0.00 | 0.00 | 25 | 1011.8 |
| 20260503215942 | 59 | 2 | 1.7 | 13.0 | 0.00 | 0.00 | 0.00 | 26 | 1012.0 |
| 20260503215439 | 59 | 334 | 4.3 | 5.2 | 0.00 | 0.00 | 0.00 | 26 | 1012.0 |
| 20260503214937 | 59 | 318 | 2.6 | 17.4 | 0.00 | 0.00 | 0.00 | 26 | 1012.0 |
| 20260503214435 | 59 | 336 | 7.0 | 8.7 | 0.00 | 0.00 | 0.00 | 26 | 1011.9 |
| 20260503213932 | 59 | 47 | 4.3 | 6.1 | 0.00 | 0.00 | 0.00 | 26 | 1012.0 |
| 20260503213430 | 59 | 292 | 12.2 | 15.6 | 0.00 | 0.00 | 0.00 | 26 | 1011.9 |
| 20260503212926 | 59 | 313 | 7.0 | 13.9 | 0.00 | 0.00 | 0.00 | 26 | 1011.9 |
| 20260503212423 | 59 | 295 | 11.3 | 14.8 | 0.00 | 0.00 | 0.00 | 26 | 1012.0 |
| 20260503211921 | 58 | 329 | 6.1 | 14.8 | 0.00 | 0.00 | 0.00 | 26 | 1011.9 |
| 20260503211418 | 58 | 1 | 1.7 | 13.9 | 0.00 | 0.00 | 0.00 | 26 | 1011.8 |
| 20260503210913 | 58 | 287 | 11.3 | 17.4 | 0.00 | 0.00 | 0.00 | 26 | 1011.9 |
| 20260503210410 | 58 | 59 | 1.7 | 18.2 | 0.00 | 0.00 | 0.00 | 27 | 1011.6 |
| 20260503205910 | 59 | 285 | 6.1 | 11.3 | 0.00 | 0.00 | 0.00 | 26 | 1011.7 |
| 20260503205408 | 58 | 286 | 5.2 | 13.9 | 0.00 | 0.00 | 0.00 | 27 | 1011.7 |
| 20260503204904 | 58 | 6 | 7.0 | 9.6 | 0.00 | 0.00 | 0.00 | 27 | 1011.6 |
| 20260503204401 | 57 | 53 | 1.7 | 2.6 | 0.00 | 0.00 | 0.00 | 28 | 1011.6 |
| 20260503203858 | 58 | 336 | 3.5 | 20.0 | 0.00 | 0.00 | 0.00 | 27 | 1011.6 |
| 20260503203355 | 57 | 295 | 8.7 | 13.9 | 0.00 | 0.00 | 0.00 | 27 | 1011.5 |
| 20260503202852 | 57 | 307 | 20.0 | 20.0 | 0.00 | 0.00 | 0.00 | 27 | 1011.7 |
| 20260503202350 | 57 | 310 | 4.3 | 13.0 | 0.00 | 0.00 | 0.00 | 27 | 1011.8 |
| 20260503201849 | 57 | 329 | 22.6 | 27.8 | 0.00 | 0.00 | 0.00 | 26 | 1012.1 |
| 20260503201345 | 58 | 331 | 10.4 | 18.2 | 0.00 | 0.00 | 0.00 | 27 | 1012.0 |
| 20260503200843 | 58 | 29 | 1.7 | 17.4 | 0.00 | 0.00 | 0.00 | 28 | 1012.0 |
| 20260503200338 | 58 | 308 | 11.3 | 13.0 | 0.00 | 0.00 | 0.00 | 28 | 1012.0 |
| 20260503195836 | 57 | 332 | 10.4 | 10.4 | 0.00 | 0.00 | 0.00 | 28 | 1011.9 |
| 20260503195332 | 58 | 346 | 9.6 | 12.2 | 0.00 | 0.00 | 0.00 | 28 | 1012.1 |
| 20260503194830 | 57 | 133 | 1.7 | 13.9 | 0.00 | 0.00 | 0.00 | 30 | 1012.0 |
| 20260503194326 | 57 | 271 | 7.8 | 18.2 | 0.00 | 0.00 | 0.00 | 28 | 1012.1 |
| 20260503193822 | 56 | 236 | 5.2 | 21.7 | 0.00 | 0.00 | 0.00 | 29 | 1012.1 |
| 20260503193318 | 56 | 294 | 7.0 | 22.6 | 0.00 | 0.00 | 0.00 | 29 | 1012.1 |